Satellite: ENVISAT
Catalog number: 27386
Epoch time:      103062.18977137
Element set:     964 
Inclination:       98.5512 deg
RA of node:       130.5575 deg
Eccentricity:    0.0001035
Arg of perigee:    91.5314 deg
Mean anomaly:     268.5988 deg
Mean motion:   14.32249876 rev/day
Decay rate:    6.6000E-007 rev/day^2
Epoch rev:            5255
Checksum:              324

Satellite: IDEFIX/ARIANE 
Catalog number: 27422
Epoch time:      103061.86453350
Element set:     245 
Inclination:       98.6936 deg
RA of node:       141.0084 deg
Eccentricity:    0.0013376
Arg of perigee:   112.5473 deg
Mean anomaly:     247.7124 deg
Mean motion:   14.27974636 rev/day
Decay rate:    1.0100E-006 rev/day^2
Epoch rev:            4321
Checksum:              282

Satellite: FENGYUN 1D
Catalog number: 27431
Epoch time:      103062.51715560
Element set:     228 
Inclination:       98.7655 deg
RA of node:       111.1496 deg
Eccentricity:    0.0016264
Arg of perigee:    88.3067 deg
Mean anomaly:     271.9966 deg
Mean motion:   14.09180882 rev/day
Decay rate:    8.8000E-007 rev/day^2
Epoch rev:            4119
Checksum:              313

Satellite: NOAA 17
Catalog number: 27453
Epoch time:      103061.79764616
Element set:     323 
Inclination:       98.7540 deg
RA of node:       132.9434 deg
Eccentricity:    0.0011179
Arg of perigee:   325.3274 deg
Mean anomaly:      34.7173 deg
Mean motion:   14.23299628 rev/day
Decay rate:    1.8199E-006 rev/day^2
Epoch rev:            3570
Checksum:              325

Satellite: HOT BIRD 6
Catalog number: 27499
Epoch time:      103054.87288413
Element set:     70 
Inclination:        0.0150 deg
RA of node:       173.7812 deg
Eccentricity:    0.0009015
Arg of perigee:   197.5701 deg
Mean anomaly:     109.1063 deg
Mean motion:    1.00270140 rev/day
Decay rate:    7.5000E-007 rev/day^2
Epoch rev:             188
Checksum:              258

Satellite: RUBIN 2
Catalog number: 27605
Epoch time:      103062.22189933
Element set:     72 
Inclination:       64.5539 deg
RA of node:       158.8175 deg
Eccentricity:    0.0035805
Arg of perigee:   108.5682 deg
Mean anomaly:     251.9319 deg
Mean motion:   14.71388119 rev/day
Decay rate:    3.8099E-006 rev/day^2
Epoch rev:            1067
Checksum:              425

Frase del giorno:
Chi comincia col mentire, finisce coll'ingannare...Le parole commuovono, ma
sono gli esempi che trascinano.

73 Ciao Renzo.

li, luned́ 03 marzo 2003 17:00 (+1.00) CET

  /___/____/
 /   /    /
     
      I6KZR  Fermo, Italy
      BBS    I6KZR@IK6WID.IMAR.ITA.EU
      e_mail i6kzr@i6kzr.it
      web http://www.i6kzr.it
      TCPip: 44.134.243.003

Messaggio inviato con Sally V3.2.118 software packet per Windows 32bit.

<TO="I6KZR@IK6WID.#AP.IMAR.ITA.EU" TITLE="Old Istantrak Keplerians #062"
CONTENT="">


Read previous mail | Read next mail


 13.09.2026 20:39:11lGo back Go up